Time,TemperatureF,DewpointF,PressureIn,WindDirection,WindDirectionDegrees,WindSpeedMPH,WindSpeedGustMPH,Humidity,HourlyPrecipIn,Conditions,Clouds,dailyrainin,SolarRadiationWatts/m^2,SoftwareType,DateUTC
2013-01-09 00:12:00,63.0,59.0,-100.00,ESE,103,8.0,15.0,87,0.00,,,0.00,0.000000,,2013-01-09 05:12:00,
2013-01-09 00:22:00,63.0,59.0,-100.00,ESE,103,8.0,15.0,87,0.00,,,0.00,0.000000,,2013-01-09 05:22:00,
2013-01-09 00:33:00,63.0,59.0,-100.00,ESE,103,8.0,15.0,87,0.00,,,0.00,0.000000,,2013-01-09 05:33:00,
2013-01-09 00:42:00,63.0,59.0,-100.00,ESE,103,8.0,15.0,87,0.00,,,0.00,0.000000,,2013-01-09 05:42:00,
2013-01-09 00:51:00,63.0,59.0,-100.00,ESE,112,6.0,16.0,86,0.00,,,0.00,0.000000,,2013-01-09 05:51:00,
2013-01-09 01:12:00,63.0,59.0,-100.00,ESE,112,6.0,16.0,86,0.00,,,0.00,0.000000,,2013-01-09 06:12:00,
2013-01-09 01:22:00,63.0,59.0,-100.00,ESE,112,6.0,16.0,86,0.00,,,0.00,0.000000,,2013-01-09 06:22:00,
2013-01-09 01:32:00,63.0,59.0,-100.00,ESE,112,6.0,16.0,86,0.00,,,0.00,0.000000,,2013-01-09 06:32:00,
2013-01-09 01:42:00,63.0,59.0,-100.00,ESE,112,6.0,16.0,86,0.00,,,0.00,0.000000,,2013-01-09 06:42:00,
2013-01-09 01:51:00,63.0,58.0,-100.00,ESE,106,5.0,14.0,84,0.00,,,0.00,0.000000,,2013-01-09 06:51:00,
2013-01-09 02:12:00,63.0,58.0,-100.00,ESE,106,5.0,14.0,84,0.00,,,0.00,0.000000,,2013-01-09 07:12:00,
2013-01-09 02:22:00,63.0,58.0,-100.00,ESE,106,5.0,14.0,84,0.00,,,0.00,0.000000,,2013-01-09 07:22:00,
2013-01-09 02:32:00,63.0,58.0,-100.00,ESE,106,5.0,14.0,84,0.00,,,0.00,0.000000,,2013-01-09 07:32:00,
2013-01-09 02:42:00,63.0,58.0,-100.00,ESE,106,5.0,14.0,84,0.00,,,0.00,0.000000,,2013-01-09 07:42:00,
2013-01-09 02:51:00,63.0,59.0,-100.00,ESE,106,6.0,11.0,86,0.00,,,0.00,0.000000,,2013-01-09 07:51:00,
2013-01-09 03:12:00,63.0,59.0,-100.00,ESE,106,6.0,11.0,86,0.00,,,0.00,0.000000,,2013-01-09 08:12:00,
2013-01-09 03:22:00,63.0,59.0,-100.00,ESE,106,6.0,11.0,86,0.00,,,0.00,0.000000,,2013-01-09 08:22:00,
2013-01-09 03:32:00,63.0,59.0,-100.00,ESE,106,6.0,11.0,86,0.00,,,0.00,0.000000,,2013-01-09 08:32:00,
2013-01-09 03:42:00,63.0,59.0,-100.00,ESE,106,6.0,11.0,86,0.00,,,0.00,0.000000,,2013-01-09 08:42:00,
2013-01-09 03:51:00,62.0,58.0,-100.00,East,94,4.0,11.0,88,0.00,,,0.00,0.000000,,2013-01-09 08:51:00,
2013-01-09 04:12:00,62.0,58.0,-100.00,East,94,4.0,11.0,88,0.00,,,0.00,0.000000,,2013-01-09 09:12:00,
2013-01-09 04:22:00,62.0,58.0,-100.00,East,94,4.0,11.0,88,0.00,,,0.00,0.000000,,2013-01-09 09:22:00,
2013-01-09 04:32:00,62.0,58.0,-100.00,East,94,4.0,11.0,88,0.00,,,0.00,0.000000,,2013-01-09 09:32:00,
2013-01-09 04:42:00,62.0,58.0,-100.00,East,94,4.0,11.0,88,0.00,,,0.00,0.000000,,2013-01-09 09:42:00,
2013-01-09 04:51:00,62.0,57.0,-100.00,East,101,4.0,9.0,85,0.00,,,0.00,0.000000,,2013-01-09 09:51:00,
2013-01-09 05:22:00,62.0,57.0,-100.00,East,101,4.0,9.0,85,0.00,,,0.00,0.000000,,2013-01-09 10:22:00,
2013-01-09 05:32:00,62.0,57.0,-100.00,East,101,4.0,9.0,85,0.00,,,0.00,0.000000,,2013-01-09 10:32:00,
2013-01-09 05:42:00,62.0,57.0,-100.00,East,101,4.0,9.0,85,0.00,,,0.00,0.000000,,2013-01-09 10:42:00,
2013-01-09 05:51:00,63.0,58.0,-100.00,ESE,105,6.0,11.0,85,0.00,,,0.00,0.000000,,2013-01-09 10:51:00,
2013-01-09 06:22:00,63.0,58.0,-100.00,ESE,105,6.0,11.0,85,0.00,,,0.00,0.000000,,2013-01-09 11:22:00,
2013-01-09 06:32:00,63.0,58.0,-100.00,ESE,105,6.0,11.0,85,0.00,,,0.00,0.000000,,2013-01-09 11:32:00,
2013-01-09 06:42:00,63.0,58.0,-100.00,ESE,105,6.0,11.0,85,0.00,,,0.00,0.000000,,2013-01-09 11:42:00,
2013-01-09 06:51:00,63.0,59.0,-100.00,ESE,110,6.0,12.0,88,0.00,,,0.00,0.000000,,2013-01-09 11:51:00,
2013-01-09 07:12:00,63.0,59.0,-100.00,ESE,110,6.0,12.0,88,0.00,,,0.00,0.000000,,2013-01-09 12:12:00,
2013-01-09 07:23:00,63.0,59.0,-100.00,ESE,110,6.0,12.0,88,0.00,,,0.00,0.000000,,2013-01-09 12:23:00,
2013-01-09 07:33:00,63.0,59.0,-100.00,ESE,110,6.0,12.0,88,0.00,,,0.00,0.000000,,2013-01-09 12:33:00,
2013-01-09 07:43:00,63.0,59.0,-100.00,ESE,110,6.0,12.0,88,0.00,,,0.00,0.000000,,2013-01-09 12:43:00,
2013-01-09 07:51:00,63.0,60.0,-100.00,ESE,110,5.0,10.0,91,0.00,,,0.00,0.000000,,2013-01-09 12:51:00,
2013-01-09 08:12:00,63.0,60.0,-100.00,ESE,110,5.0,10.0,91,0.00,,,0.00,0.000000,,2013-01-09 13:12:00,
2013-01-09 08:23:00,63.0,60.0,-100.00,ESE,110,5.0,10.0,91,0.00,,,0.00,0.000000,,2013-01-09 13:23:00,
2013-01-09 08:33:00,63.0,60.0,-100.00,ESE,110,5.0,10.0,91,0.00,,,0.00,0.000000,,2013-01-09 13:33:00,
2013-01-09 08:43:00,63.0,60.0,-100.00,ESE,110,5.0,10.0,91,0.00,,,0.00,0.000000,,2013-01-09 13:43:00,
2013-01-09 08:51:00,64.0,62.0,-100.00,ESE,105,6.0,12.0,92,0.00,,,0.00,15.000000,,2013-01-09 13:51:00,
2013-01-09 09:12:00,64.0,62.0,-100.00,ESE,105,6.0,12.0,92,0.00,,,0.00,15.000000,,2013-01-09 14:12:00,
2013-01-09 09:22:00,64.0,62.0,-100.00,ESE,105,6.0,12.0,92,0.00,,,0.00,15.000000,,2013-01-09 14:22:00,
2013-01-09 09:33:00,64.0,62.0,-100.00,ESE,105,6.0,12.0,92,0.00,,,0.00,15.000000,,2013-01-09 14:33:00,
2013-01-09 09:43:00,64.0,62.0,-100.00,ESE,105,6.0,12.0,92,0.00,,,0.00,15.000000,,2013-01-09 14:43:00,
2013-01-09 09:51:00,65.0,63.0,-100.00,ESE,107,7.0,14.0,93,0.00,,,0.00,49.000000,,2013-01-09 14:51:00,
2013-01-09 10:12:00,65.0,63.0,-100.00,ESE,107,7.0,14.0,93,0.00,,,0.00,49.000000,,2013-01-09 15:12:00,
2013-01-09 10:23:00,65.0,63.0,-100.00,ESE,107,7.0,14.0,93,0.00,,,0.00,49.000000,,2013-01-09 15:23:00,
2013-01-09 10:33:00,65.0,63.0,-100.00,ESE,107,7.0,14.0,93,0.00,,,0.00,49.000000,,2013-01-09 15:33:00,
2013-01-09 10:42:00,65.0,63.0,-100.00,ESE,107,7.0,14.0,93,0.00,,,0.00,49.000000,,2013-01-09 15:42:00,
2013-01-09 10:51:00,66.0,63.0,-100.00,ESE,108,7.0,15.0,90,0.00,,,0.00,87.000000,,2013-01-09 15:51:00,
2013-01-09 11:23:00,66.0,63.0,-100.00,ESE,108,7.0,15.0,90,0.00,,,0.00,87.000000,,2013-01-09 16:23:00,
2013-01-09 11:33:00,66.0,63.0,-100.00,ESE,108,7.0,15.0,90,0.00,,,0.00,87.000000,,2013-01-09 16:33:00,
2013-01-09 11:43:00,66.0,63.0,-100.00,ESE,108,7.0,15.0,90,0.00,,,0.00,87.000000,,2013-01-09 16:43:00,
2013-01-09 11:51:00,68.0,64.0,-100.00,ESE,105,8.0,15.0,87,0.00,,,0.00,94.000000,,2013-01-09 16:51:00,
2013-01-09 12:12:00,68.0,64.0,-100.00,ESE,105,8.0,15.0,87,0.00,,,0.00,94.000000,,2013-01-09 17:12:00,
2013-01-09 12:23:00,68.0,64.0,-100.00,ESE,105,8.0,15.0,87,0.00,,,0.00,94.000000,,2013-01-09 17:23:00,
2013-01-09 12:33:00,68.0,64.0,-100.00,ESE,105,8.0,15.0,87,0.00,,,0.00,94.000000,,2013-01-09 17:33:00,
2013-01-09 12:43:00,68.0,64.0,-100.00,ESE,105,8.0,15.0,87,0.00,,,0.00,94.000000,,2013-01-09 17:43:00,
2013-01-09 12:51:00,68.0,64.0,-100.00,ESE,113,9.0,16.0,88,0.00,,,0.00,126.000000,,2013-01-09 17:51:00,
2013-01-09 13:24:00,68.0,64.0,-100.00,ESE,113,9.0,16.0,88,0.00,,,0.00,126.000000,,2013-01-09 18:24:00,
2013-01-09 13:33:00,68.0,64.0,-100.00,ESE,113,9.0,16.0,88,0.00,,,0.00,126.000000,,2013-01-09 18:33:00,
2013-01-09 13:43:00,68.0,64.0,-100.00,ESE,113,9.0,16.0,88,0.00,,,0.00,126.000000,,2013-01-09 18:43:00,
2013-01-09 13:51:00,68.0,65.0,-100.00,ESE,116,9.0,16.0,89,0.00,,,0.00,112.000000,,2013-01-09 18:51:00,
2013-01-09 14:23:00,68.0,65.0,-100.00,ESE,116,9.0,16.0,89,0.00,,,0.00,112.000000,,2013-01-09 19:23:00,
2013-01-09 14:33:00,68.0,65.0,-100.00,ESE,116,9.0,16.0,89,0.00,,,0.00,112.000000,,2013-01-09 19:33:00,
2013-01-09 14:43:00,68.0,65.0,-100.00,ESE,116,9.0,16.0,89,0.00,,,0.00,112.000000,,2013-01-09 19:43:00,
2013-01-09 14:51:00,68.0,65.0,-100.00,ESE,108,9.0,17.0,89,0.00,,,0.00,91.000000,,2013-01-09 19:51:00,
2013-01-09 15:23:00,68.0,65.0,-100.00,ESE,108,9.0,17.0,89,0.00,,,0.00,91.000000,,2013-01-09 20:23:00,
2013-01-09 15:33:00,68.0,65.0,-100.00,ESE,108,9.0,17.0,89,0.00,,,0.00,91.000000,,2013-01-09 20:33:00,
2013-01-09 15:43:00,68.0,65.0,-100.00,ESE,108,9.0,17.0,89,0.00,,,0.00,91.000000,,2013-01-09 20:43:00,
2013-01-09 15:51:00,69.0,66.0,-100.00,ESE,107,7.0,17.0,90,0.00,,,0.00,92.000000,,2013-01-09 20:51:00,
2013-01-09 16:23:00,69.0,66.0,-100.00,ESE,107,7.0,17.0,90,0.00,,,0.00,92.000000,,2013-01-09 21:23:00,
2013-01-09 16:33:00,69.0,66.0,-100.00,ESE,107,7.0,17.0,90,0.00,,,0.00,92.000000,,2013-01-09 21:33:00,
2013-01-09 16:43:00,69.0,66.0,-100.00,ESE,107,7.0,17.0,90,0.00,,,0.00,92.000000,,2013-01-09 21:43:00,
2013-01-09 16:51:00,68.0,66.0,-100.00,ESE,111,8.0,17.0,92,0.00,,,0.00,38.000000,,2013-01-09 21:51:00,
2013-01-09 17:23:00,68.0,66.0,-100.00,ESE,111,8.0,17.0,92,0.00,,,0.00,38.000000,,2013-01-09 22:23:00,
2013-01-09 17:33:00,68.0,66.0,-100.00,ESE,111,8.0,17.0,92,0.00,,,0.00,38.000000,,2013-01-09 22:33:00,
2013-01-09 17:43:00,68.0,66.0,-100.00,ESE,111,8.0,17.0,92,0.00,,,0.00,38.000000,,2013-01-09 22:43:00,
2013-01-09 17:51:00,67.0,65.0,-100.00,ESE,110,5.0,15.0,94,0.00,,,0.00,31.000000,,2013-01-09 22:51:00,
2013-01-09 18:22:00,67.0,65.0,-100.00,ESE,110,5.0,15.0,94,0.00,,,0.00,31.000000,,2013-01-09 23:22:00,
2013-01-09 18:33:00,67.0,65.0,-100.00,ESE,110,5.0,15.0,94,0.00,,,0.00,31.000000,,2013-01-09 23:33:00,
2013-01-09 18:43:00,67.0,65.0,-100.00,ESE,110,5.0,15.0,94,0.00,,,0.00,31.000000,,2013-01-09 23:43:00,
2013-01-09 18:51:00,67.0,66.0,-100.00,ESE,111,5.0,12.0,95,0.00,,,0.00,1.000000,,2013-01-09 23:51:00,
2013-01-09 19:22:00,67.0,66.0,-100.00,ESE,111,5.0,12.0,95,0.00,,,0.00,1.000000,,2013-01-10 00:22:00,
2013-01-09 19:32:00,67.0,66.0,-100.00,ESE,111,5.0,12.0,95,0.00,,,0.00,1.000000,,2013-01-10 00:32:00,
2013-01-09 19:42:00,67.0,66.0,-100.00,ESE,111,5.0,12.0,95,0.00,,,0.00,1.000000,,2013-01-10 00:42:00,
2013-01-09 19:51:00,67.0,66.0,-100.00,ESE,107,7.0,13.0,95,0.00,,,0.00,0.000000,,2013-01-10 00:51:00,
2013-01-09 20:12:00,67.0,66.0,-100.00,ESE,107,7.0,13.0,95,0.00,,,0.00,0.000000,,2013-01-10 01:12:00,
2013-01-09 20:22:00,67.0,66.0,-100.00,ESE,107,7.0,13.0,95,0.00,,,0.00,0.000000,,2013-01-10 01:22:00,
2013-01-09 20:33:00,67.0,66.0,-100.00,ESE,107,7.0,13.0,95,0.00,,,0.00,0.000000,,2013-01-10 01:33:00,
2013-01-09 20:43:00,67.0,66.0,-100.00,ESE,107,7.0,13.0,95,0.00,,,0.00,0.000000,,2013-01-10 01:43:00,
2013-01-09 20:51:00,67.0,66.0,-100.00,ESE,110,6.0,14.0,97,0.00,,,0.00,0.000000,,2013-01-10 01:51:00,
2013-01-09 21:12:00,67.0,66.0,-100.00,ESE,110,6.0,14.0,97,0.00,,,0.00,0.000000,,2013-01-10 02:12:00,
2013-01-09 21:22:00,67.0,66.0,-100.00,ESE,110,6.0,14.0,97,0.00,,,0.00,0.000000,,2013-01-10 02:22:00,
2013-01-09 21:32:00,67.0,66.0,-100.00,ESE,110,6.0,14.0,97,0.00,,,0.00,0.000000,,2013-01-10 02:32:00,
2013-01-09 21:42:00,67.0,66.0,-100.00,ESE,110,6.0,14.0,97,0.00,,,0.00,0.000000,,2013-01-10 02:42:00,
2013-01-09 21:51:00,67.0,66.0,-100.00,East,100,5.0,15.0,97,0.00,,,0.00,0.000000,,2013-01-10 02:51:00,
2013-01-09 22:12:00,67.0,66.0,-100.00,East,100,5.0,15.0,97,0.00,,,0.00,0.000000,,2013-01-10 03:12:00,
2013-01-09 22:22:00,67.0,66.0,-100.00,East,100,5.0,15.0,97,0.00,,,0.00,0.000000,,2013-01-10 03:22:00,
2013-01-09 22:33:00,67.0,66.0,-100.00,East,100,5.0,15.0,97,0.00,,,0.00,0.000000,,2013-01-10 03:33:00,
2013-01-09 22:42:00,67.0,66.0,-100.00,East,100,5.0,15.0,97,0.00,,,0.00,0.000000,,2013-01-10 03:42:00,
2013-01-09 22:51:00,67.0,66.0,-100.00,ESE,111,6.0,18.0,97,0.00,,,0.00,0.000000,,2013-01-10 03:51:00,
2013-01-09 23:12:00,67.0,66.0,-100.00,ESE,111,6.0,18.0,97,0.00,,,0.00,0.000000,,2013-01-10 04:12:00,
2013-01-09 23:22:00,67.0,66.0,-100.00,ESE,111,6.0,18.0,97,0.00,,,0.00,0.000000,,2013-01-10 04:22:00,
2013-01-09 23:32:00,67.0,66.0,-100.00,ESE,111,6.0,18.0,97,0.00,,,0.00,0.000000,,2013-01-10 04:32:00,
2013-01-09 23:42:00,67.0,66.0,-100.00,ESE,111,6.0,18.0,97,0.00,,,0.00,0.000000,,2013-01-10 04:42:00,
2013-01-09 23:51:00,67.0,66.0,-100.00,ESE,108,6.0,15.0,98,0.00,,,0.00,0.000000,,2013-01-10 04:51:00,